Weather in Astrakhan'

Russia / Kirov Oblast     57°49′27″N   51°15′41″E
temp.,
°C
wind,
m/s
gust,
m/s
humid.,
%
clouds,
%
prec.,
mm/h
press.,
hPa
HPBL,
m
18 may, tue
tue1800:00+14nne388297 0.0 1018149
03:00+13nne34845 0.0 101960
06:00+15nne3573100 0.0 1020250
09:00+19nne3459100 0.0 1020756
12:00+21nne3451100 0.0 10201184
15:00+22ne3448100 0.0 10201273
18:00+21ne2361100 0.0 102054
21:00+15e477182 0.0 1021101
19 may, wed
wed1900:00+14ese4117656 0.0 1021184
03:00+12ese498034 0.0 1022158
06:00+15ese597414 0.0 1022324
09:00+20ese57536 0.0 1022848
12:00+23ese563989 0.0 10211335
15:00+24se563511 0.0 10201616
18:00+21se365572 0.0 1020120
21:00+15se4567100 0.0 102172
20 may, thu
thu2000:00+13se477155 0.0 1021107
03:00+12se487379 0.0 1022127
06:00+16se47675 0.0 1021208
09:00+22sse45490 0.0 1021661
12:00+25sse45372 0.0 10191832
15:00+25sse56360 0.0 10182171
18:00+22sse48530 0.0 1018202
21:00+16sse410655 0.0 1018151
21 may, fri
fri2100:00+14se410690 0.0 1018166
03:00+12se497347 0.0 1018149
06:00+16sse5126721 0.0 1017394
09:00+22sse7114299 0.0 10161973
12:00+23s81043100 0.0 10152177
15:00+23ssw594796 0.0 10141815
18:00+20ssw5106651 0.6 1014485
21:00+15s498532 1.8 1015155
22 may, sat
sat2200:00+13ssw513914 0.2 1015396
03:00+12sw612921 0.3 1016635
06:00+11wsw7108561 0.1 1018785
09:00+12wsw6979100 0.1 1020876
12:00+15wsw6866100 0.0 10201190
15:00+16wsw6964100 0.0 10211263
18:00+15wsw5869100 0.0 1021538
21:00+12sw3880100 0.0 1022187